Theta_e
332 337 348 349 348 348 348 348 348 348 346 344 344 343 343 342 341 343 342 341 340 340 341 339 340 340 338 336 336 337 336 335 334 334 334 335 334 335 333 333 333 328 335
335 340 345 348 348 348 347 347 349 348 346 344 343 342 341 341 340 338 338 340 340 340 340 340 340 340 337 335 334 334 334 333 333 333 333 333 333 334 334 333 333 330 334
338 342 344 347 348 347 347 346 348 348 345 343 341 340 339 339 339 338 337 337 337 340 339 338 338 339 337 334 333 333 333 333 333 333 332 326 328 335 333 334 335 334 334
339 341 342 345 348 346 346 346 347 347 346 342 340 339 338 337 337 337 336 336 337 338 337 337 337 337 335 334 334 334 334 333 332 330 324 324 327 334 335 335 334 334 335
336 338 341 345 347 346 346 346 346 346 345 344 340 339 337 337 336 335 336 335 336 336 336 337 336 336 334 334 334 334 333 332 330 325 322 325 327 334 335 333 331 331 333
334 336 340 345 347 346 346 346 346 346 345 344 342 339 337 337 336 335 335 335 335 335 336 336 335 335 334 334 334 333 332 331 327 322 324 327 328 335 334 334 335 335 335
331 334 338 343 344 345 345 345 346 345 345 343 343 339 337 336 334 335 334 334 334 334 335 335 336 335 334 334 333 333 331 329 322 321 325 327 329 335 336 336 336 336 336
331 334 336 336 338 341 343 343 344 344 343 343 341 338 337 336 334 333 333 334 334 334 334 335 335 335 334 333 332 330 328 326 322 321 323 325 334 336 337 337 336 335 334
331 332 332 333 334 334 337 338 339 341 341 341 340 339 337 336 333 332 332 333 333 333 333 333 333 333 333 332 329 327 325 324 318 320 323 324 335 336 335 336 334 333 331
329 330 329 330 331 330 330 330 332 334 335 336 335 333 331 331 331 330 331 334 332 332 332 332 332 331 331 330 327 324 322 322 318 320 322 327 335 335 335 334 332 330 327
328 327 328 327 327 327 327 325 327 329 329 328 328 326 324 323 324 324 327 331 332 332 330 330 328 327 327 329 325 322 320 317 319 320 322 331 333 333 334 332 329 325 323
326 329 326 325 325 324 326 324 324 325 323 322 322 322 322 321 321 323 322 326 328 328 330 328 327 324 320 317 318 318 315 317 317 317 319 330 332 330 332 328 325 322 321
326 329 326 324 324 323 323 322 321 321 320 320 320 320 320 319 318 318 318 318 316 317 316 317 317 316 316 316 315 314 315 315 314 314 318 326 327 327 328 325 321 321 319
323 327 326 324 323 322 322 321 320 319 318 317 318 319 318 316 314 313 314 314 313 314 314 314 314 315 316 316 315 314 314 313 312 311 312 318 325 328 325 322 320 319 318
321 326 328 323 322 322 321 319 319 318 318 318 318 319 319 316 314 313 313 312 312 313 314 313 314 315 315 315 315 314 313 312 309 309 310 316 324 325 323 319 319 318 317
321 323 326 325 323 322 320 319 319 318 318 317 318 319 319 318 315 313 312 312 312 313 313 314 314 314 315 315 315 314 313 311 309 308 310 311 320 322 320 318 317 317 316
322 323 324 326 324 322 321 320 319 318 319 317 318 319 319 319 316 314 313 313 314 314 314 314 314 314 314 315 315 315 314 313 309 308 308 307 309 316 317 316 315 314 314
324 322 323 327 325 323 321 321 321 320 318 319 319 320 320 319 318 315 315 314 315 315 314 314 313 313 313 312 312 314 313 312 308 309 308 306 306 306 311 312 312 311 311
326 324 322 323 323 323 322 321 320 320 319 320 320 320 320 319 318 317 315 315 315 315 314 314 313 312 311 311 312 313 313 310 307 308 307 305 305 304 304 308 307 308 309
324 326 325 322 323 323 322 320 318 317 319 318 319 321 320 320 319 317 316 316 316 315 314 313 313 312 312 312 315 312 312 310 307 306 306 305 302 301 301 297 297 299 306
320 322 324 323 321 321 319 318 317 318 318 314 318 319 319 320 319 318 316 316 316 315 315 314 313 312 310 311 309 311 308 304 304 304 306 304 301 298 295 294 294 294 296
320 321 323 325 322 321 322 322 319 319 316 319 317 316 318 319 319 319 317 316 316 316 314 314 312 310 311 312 309 309 307 303 300 299 302 303 300 298 295 293 291 291 292
320 319 321 323 326 323 322 321 317 316 315 315 314 316 317 319 319 319 318 319 317 317 317 315 314 312 311 311 314 312 306 304 299 295 296 301 301 297 296 293 290 289 290
320 322 322 322 323 325 324 321 320 319 318 319 320 318 316 318 319 320 320 319 318 318 318 317 316 316 313 314 313 315 313 307 299 295 293 296 297 296 296 291 291 289 288
321 320 320 321 322 325 326 325 322 320 322 322 320 318 317 317 319 320 320 319 319 318 318 318 315 315 315 317 314 309 310 306 304 298 302 290 293 295 296 293 290 289 287
320 320 319 319 320 324 326 325 324 323 323 320 319 319 320 319 318 319 320 320 320 320 318 318 318 317 316 317 319 315 312 307 306 302 296 292 293 294 296 293 291 289 289
Wind_Speed
3 3 6 10 12 11 11 18 17 16 16 17 17 17 16 16 17 15 14 16 15 16 17 16 15 20 19 19 18 18 19 20 19 20 19 19 18 18 18 16 13 10 18
6 4 8 11 13 12 13 15 14 15 15 16 16 16 17 17 17 16 15 14 16 15 17 16 15 20 18 18 17 18 19 19 19 16 14 17 18 17 17 17 16 14 17
6 4 6 10 13 12 12 13 12 14 16 16 16 16 16 16 17 15 15 14 15 16 15 15 17 18 17 17 18 18 18 17 16 14 13 5 9 16 16 16 15 15 15
7 6 6 10 12 13 11 12 11 13 14 16 16 16 16 16 16 15 14 14 14 15 14 14 17 16 16 17 18 18 17 15 13 12 5 5 10 15 14 15 13 12 12
6 6 6 10 12 13 11 11 12 13 13 13 16 16 16 15 15 15 14 13 13 14 14 14 17 17 16 17 18 17 15 12 13 8 6 5 5 10 12 11 10 9 8
6 5 7 10 13 14 12 11 12 13 12 12 16 16 15 15 14 14 14 14 13 14 14 15 16 16 16 16 16 15 13 12 10 6 6 7 5 8 8 7 8 8 8
6 5 5 9 11 11 10 10 11 12 13 14 16 16 16 14 12 14 14 14 13 14 14 14 14 15 15 15 14 12 10 10 6 6 5 5 5 7 10 11 16 18 20
7 6 5 7 7 8 10 12 12 14 13 14 15 16 15 13 11 12 13 13 12 13 13 14 13 13 14 13 11 10 9 8 6 6 5 5 5 11 14 15 16 18 19
5 6 5 6 6 7 8 10 10 12 12 13 14 14 13 11 11 11 11 11 11 12 13 13 13 12 11 10 10 9 8 8 5 4 5 4 7 13 14 16 16 19 20
6 5 5 5 5 6 6 7 8 10 10 10 12 11 12 10 10 10 8 8 10 10 11 11 12 11 9 10 9 8 7 8 5 5 4 3 12 15 16 17 18 19 18
4 4 5 5 4 5 5 6 7 8 10 10 11 11 8 4 6 6 6 7 7 7 9 10 10 9 9 9 8 7 7 3 4 4 4 9 12 14 16 17 17 17 17
11 7 5 6 5 5 4 4 6 6 4 5 5 5 4 5 4 4 5 7 6 6 6 7 7 8 7 3 3 5 3 4 4 4 3 10 10 13 14 15 16 15 13
13 7 6 6 6 6 4 4 2 2 4 4 6 5 4 3 3 2 2 3 2 4 3 4 4 3 4 3 3 3 3 4 3 3 5 12 8 9 13 15 12 11 11
11 11 7 7 6 5 4 3 4 4 3 3 3 4 3 3 2 2 1 2 2 2 2 2 2 3 3 4 4 4 3 3 3 3 5 10 10 11 12 11 8 9 9
11 13 13 8 7 5 5 3 3 4 4 4 4 4 4 3 3 3 2 1 1 1 1 1 1 2 3 3 3 4 4 4 4 2 2 9 7 10 11 8 8 8 8
12 12 13 10 8 7 5 5 4 4 5 4 4 4 5 4 4 4 4 4 3 2 1 1 2 2 2 3 4 5 5 4 3 4 3 4 11 11 10 7 6 6 6
11 12 13 12 9 10 9 7 4 4 4 4 4 5 6 5 4 4 4 4 3 3 4 3 2 2 3 2 3 4 3 4 3 3 4 3 5 10 9 7 6 5 5
11 13 12 11 11 10 9 8 6 5 5 5 5 5 7 6 6 5 3 3 4 3 3 2 2 2 2 3 2 3 3 3 3 3 3 2 4 4 6 7 5 3 2
13 12 12 12 13 12 8 6 6 7 6 6 4 4 6 6 6 5 4 4 4 3 3 3 3 2 2 2 2 3 3 3 4 3 4 3 2 4 3 6 5 4 1
11 12 13 11 12 11 7 5 3 4 5 4 5 5 6 5 6 5 4 5 4 4 3 2 4 3 3 3 2 3 3 2 2 4 4 4 4 5 6 6 4 2 3
9 11 14 13 12 10 6 6 5 8 6 3 5 7 7 6 7 6 5 5 5 5 6 5 4 5 3 3 4 2 2 3 4 4 4 5 5 3 4 4 3 3 3
15 15 13 14 14 12 9 8 4 5 3 5 5 5 7 7 8 8 7 7 7 5 5 5 5 3 3 5 4 2 2 3 4 6 5 6 7 6 5 5 6 6 5
16 15 15 16 15 14 13 6 3 3 2 3 4 5 8 9 9 9 9 9 7 7 7 7 7 7 5 4 7 4 2 5 1 2 7 7 8 6 6 7 5 6 6
17 15 17 15 15 14 15 12 14 11 11 8 7 5 6 10 10 11 11 10 9 7 8 8 7 8 5 8 3 7 2 3 5 3 4 6 6 8 9 6 8 6 5
16 17 15 15 15 16 17 16 12 14 9 7 5 7 8 8 11 11 12 11 11 8 9 9 7 9 8 8 7 3 5 4 3 4 7 3 3 7 8 8 7 7 7
12 14 14 17 19 17 17 18 17 16 14 8 7 7 7 7 8 11 11 11 11 10 11 10 11 11 10 9 8 7 7 5 6 5 5 5 7 6 10 8 9 9 8
Wind_Direction
211 204 149 128 121 116 114 105 107 107 102 100 99 97 94 91 89 84 85 83 87 86 84 77 81 84 81 76 76 78 73 72 71 70 71 76 75 75 75 70 70 63 65
141 169 157 132 121 118 112 113 115 113 109 105 102 100 98 95 92 92 87 86 91 92 85 81 86 92 84 79 83 81 79 77 74 68 63 70 74 73 69 69 67 66 63
126 145 128 129 127 121 120 121 126 120 119 113 107 104 102 99 95 97 96 97 98 91 89 88 88 87 84 81 83 82 80 77 67 56 52 51 71 75 72 66 62 65 65
122 115 124 128 133 131 130 133 129 123 122 119 113 107 106 100 98 98 97 98 98 99 92 89 93 89 87 87 85 82 79 74 69 64 46 32 71 70 69 65 62 55 54
111 125 134 141 140 139 133 136 137 126 126 125 117 113 105 104 103 99 94 94 95 99 91 91 93 90 91 90 87 85 81 71 52 40 27 49 56 70 70 71 69 66 47
127 130 147 145 142 139 135 134 137 127 122 128 124 116 113 105 107 100 97 95 98 103 94 95 95 92 93 91 90 87 76 57 47 33 26 16 20 65 60 56 37 47 40
140 142 149 142 140 138 136 127 137 134 130 122 120 120 114 112 109 108 102 99 103 106 101 97 96 97 96 94 90 85 72 57 44 33 21 3 342 45 54 60 70 64 59
147 144 150 136 140 139 132 124 130 133 128 123 124 122 118 118 117 111 105 103 108 109 103 99 97 97 97 95 91 81 66 52 38 26 11 0 349 73 75 76 72 63 58
139 134 137 143 148 126 125 127 124 131 126 123 122 121 112 106 120 116 111 107 107 108 106 99 91 93 100 100 89 79 67 56 51 28 4 349 29 72 70 68 69 65 58
139 140 137 132 134 134 135 125 116 109 103 103 104 108 103 101 103 122 94 105 112 113 108 101 93 86 94 116 106 87 62 51 42 21 13 20 61 68 65 68 64 62 58
138 159 144 139 135 135 136 132 118 115 99 89 102 105 97 114 119 110 109 98 103 104 105 96 91 85 86 115 107 83 60 43 42 27 6 27 58 64 71 72 65 56 59
174 181 166 148 153 146 125 134 135 125 107 113 118 122 125 125 129 132 128 121 114 104 94 83 72 84 80 91 93 66 56 50 44 28 4 30 59 65 78 73 60 63 65
181 177 174 161 160 155 145 140 116 113 129 137 152 152 139 120 122 115 101 75 75 71 50 45 52 74 99 110 114 83 69 54 43 29 9 24 46 70 76 70 68 72 69
168 179 174 172 165 164 145 164 149 138 135 149 169 162 140 132 135 91 80 82 67 47 59 47 61 91 99 112 131 115 94 77 56 32 14 22 10 98 87 82 87 84 82
172 180 188 171 166 163 158 157 151 156 164 174 168 169 155 156 170 161 164 134 133 167 171 165 141 126 118 122 134 129 113 87 74 62 30 8 39 103 90 91 90 82 75
181 182 185 184 172 160 166 170 181 170 177 177 184 183 182 180 182 181 176 189 201 191 183 202 199 167 153 149 157 157 149 136 136 101 69 43 69 76 90 84 77 78 78
189 181 180 181 177 177 176 179 176 190 178 185 189 191 199 191 190 185 190 200 209 199 188 186 206 174 153 167 173 179 148 164 120 113 105 89 65 68 78 75 66 60 65
182 183 181 181 180 189 185 182 185 186 186 196 194 190 190 193 189 193 207 214 202 189 199 190 193 198 206 190 183 181 163 127 115 104 91 78 106 83 77 89 70 61 60
185 180 185 182 184 189 186 184 188 193 198 203 195 204 202 194 185 185 201 217 195 199 198 190 204 184 199 222 203 171 155 147 147 136 135 114 103 126 114 111 95 49 160
190 184 187 187 185 184 178 171 177 193 212 191 200 204 192 196 191 188 199 211 192 190 205 187 206 197 188 180 135 131 136 120 150 168 172 168 178 177 165 162 164 156 174
187 186 188 185 188 175 174 185 202 214 207 206 205 196 192 186 191 195 199 198 196 200 204 193 187 201 206 164 115 124 124 168 181 207 199 184 199 201 189 186 188 179 181
202 199 193 194 186 191 193 196 187 180 200 215 195 201 196 194 194 196 195 202 199 200 201 193 181 192 211 182 156 124 199 224 231 202 196 202 202 203 204 204 201 202 198
204 198 200 200 193 194 195 178 123 108 108 168 199 207 204 198 202 199 201 207 200 197 209 203 196 189 207 204 217 167 180 230 116 183 226 217 213 205 210 213 218 220 207
213 202 206 200 200 197 191 192 198 204 209 212 213 198 193 199 204 207 208 206 205 203 212 208 200 208 188 225 211 240 280 151 190 267 247 228 211 214 215 204 209 212 222
202 204 200 196 198 197 198 202 200 211 215 210 177 187 200 203 210 209 209 206 210 206 217 210 199 209 206 224 214 182 219 213 224 196 260 261 242 225 219 209 199 202 203
199 196 195 194 202 198 197 203 205 209 211 200 195 202 212 210 209 214 210 212 215 214 214 214 216 215 214 224 231 219 209 194 198 203 238 224 217 219 213 202 203 204 201